Estación de Peldehue

Ultimos registro cada 15 minutos 41
Estación Fecha / Hora Temperatura Humedad Lluvia Velocidad Dirección Radiación Presion
41 Peldehue 08-05-2026 10:00 11,5 71,8 0 0 191 426,9 938,5
40 Peldehue 08-05-2026 09:45 11,7 72,2 0 0 198 383,1 938,4
39 Peldehue 08-05-2026 09:30 11,4 74,4 0 0 206 341,9 938,4
38 Peldehue 08-05-2026 09:15 10,2 80,3 0 0 209 296,9 938,3
37 Peldehue 08-05-2026 09:00 9,4 80,4 0 0 211 254,4 938,1
36 Peldehue 08-05-2026 08:45 7,9 85,1 0 0 211 208,1 938,4
35 Peldehue 08-05-2026 08:30 6,3 89,1 0 0 215 163,1 938,4
34 Peldehue 08-05-2026 08:15 4,2 93,2 0 0 213 51,9 938,4
33 Peldehue 08-05-2026 08:00 4,9 93,5 0 0 212 20,6 938,3
32 Peldehue 08-05-2026 07:45 4,5 93,3 0 0 212 9,4 938,7
31 Peldehue 08-05-2026 07:30 4,3 92 0 0 212 5,6 938,8
30 Peldehue 08-05-2026 07:15 5,4 92 0 0 212 1,9 939
29 Peldehue 08-05-2026 07:00 5 92,6 0 0 213 0,6 938,9
28 Peldehue 08-05-2026 06:45 4,6 93 0 0 219 0,6 938,9
27 Peldehue 08-05-2026 06:30 4,4 91,7 0 0 216 0,6 939
26 Peldehue 08-05-2026 06:15 5,4 92 0,2 0 212 0,6 938,4
25 Peldehue 08-05-2026 06:00 5,2 92,2 0 0 212 0,6 938,4
24 Peldehue 08-05-2026 05:45 5 92,5 0 0 212 0,6 938,5
23 Peldehue 08-05-2026 05:30 5,1 92,1 0 0 212 0,6 938,2
22 Peldehue 08-05-2026 05:15 5,5 92,2 0 0 212 0,6 938,1
21 Peldehue 08-05-2026 05:00 5,4 92,2 0 0 212 0,6 938
20 Peldehue 08-05-2026 04:45 5,4 90,8 0 0 212 0,6 937,9
19 Peldehue 08-05-2026 04:30 6,1 90,2 0 0 212 0,6 938
18 Peldehue 08-05-2026 04:15 6,5 89 0 0 212 0,6 938,2
17 Peldehue 08-05-2026 04:00 6,5 89,8 0 0 212 0,6 938,4
16 Peldehue 08-05-2026 03:45 6,6 90,1 0 0 212 0,6 938,5
15 Peldehue 08-05-2026 03:30 6,4 90,1 0 0 212 0,6 938,9
14 Peldehue 08-05-2026 03:15 6,5 89,7 0 0 212 0,6 939
13 Peldehue 08-05-2026 03:00 6,7 89,4 0 0 212 0,6 938,8
12 Peldehue 08-05-2026 02:45 6,7 90 0 0 212 0,6 938,9
11 Peldehue 08-05-2026 02:30 7 89,8 0 0 212 0,6 938,9
10 Peldehue 08-05-2026 02:15 7,3 88,3 0 0 212 0,6 939,1
9 Peldehue 08-05-2026 02:00 7,9 88 0 0 212 0,6 939,1
8 Peldehue 08-05-2026 01:45 8,2 88 0,2 0 212 0,6 939,4
7 Peldehue 08-05-2026 01:30 8,4 88,6 0 0 212 0,6 939,4
6 Peldehue 08-05-2026 01:15 9 86,4 0 0 212 0,6 939,8
5 Peldehue 08-05-2026 01:00 9,6 83,8 0 0 212 0,6 939,9
4 Peldehue 08-05-2026 00:45 9,9 83,3 0 0 212 0,6 939,8
3 Peldehue 08-05-2026 00:30 10,2 82,2 0 0 212 0,6 940
2 Peldehue 08-05-2026 00:15 10,3 85,2 0 0 212 0,6 940,3
1 Peldehue 08-05-2026 00:00 10,4 83,7 0 0 212 0,6 940,5